Weather History for Milwaukee Timmerman, WI

Change the Weather History Date:

Monday, December 10, 2012

  Actual Average Record
Temperature  
Mean Temperature 30 °F -  
Max Temperature 33 °F 33 °F 52 °F (1979)
Min Temperature 28 °F 21 °F -8 °F (1958)
Degree Days  
Heating Degree Days 34    
Moisture  
Dew Point 27 °F    
Average Humidity 85    
Maximum Humidity 100    
Minimum Humidity 69    
Precipitation  
Precipitation 0.00 in - - ()
Sea Level Pressure  
Sea Level Pressure 29.79 in    
Wind  
Wind Speed 7 mph (NW)    
Max Wind Speed 14 mph    
Max Gust Speed 20 mph    
Visibility 8 miles    
Events Snow    
Averages and records for this station are not official NWS values.
T = Trace of Precipitation, MM = Missing Value Source: NWS Daily Summary

Daily Weather History Graph

Daily Weather History Graph

Search for Another Location

Airport:

Trip Planner

Search our weather history database for the weather conditions in past years. The results will help you decide how hot, cold, wet, or windy it might be!

Date:

Astronomy

Dec. 10, 2012 Rise Set
Actual Time 7:13 AM CST 4:17 PM CST
Civil Twilight 6:40 AM CST 4:49 PM CST
Nautical Twilight 6:05 AM CST 5:25 PM CST
Astronomical Twilight 5:30 AM CST 5:59 PM CST
Moon 3:53 AM CST (12/10) 2:08 PM CST (12/10)
Length of Visible Light 10h 08m
Length of Day
9h 03m
Waning Crescent, 10% of the Moon is Illuminated
Dec 10
Waning Crescent
Dec 13
New
Dec 19
First Quarter
Dec 28
Full
Jan 4
Last Quarter

Hourly Weather History & Observations

Time (CST) Temp. Windchill Dew Point Humidity Pressure Visibility Wind Dir Wind Speed Gust Speed Precip Events Conditions
12:15 AM 33.8 °F 27.7 °F 33.8 °F 100% 29.66 in 3.0 mi WNW 6.9 mph - N/A   Overcast
12:35 AM 33.8 °F 27.7 °F 32.0 °F 93% 29.66 in 3.0 mi West 6.9 mph - N/A   Overcast
12:55 AM 33.8 °F 27.7 °F 32.0 °F 93% 29.66 in 4.0 mi West 6.9 mph - N/A   Overcast
1:15 AM 33.8 °F 26.4 °F 32.0 °F 93% 29.66 in 7.0 mi West 9.2 mph - N/A   Overcast
1:35 AM 33.8 °F 27.0 °F 32.0 °F 93% 29.67 in 7.0 mi West 8.1 mph - N/A   Overcast
1:55 AM 33.8 °F 27.0 °F 32.0 °F 93% 29.67 in 7.0 mi West 8.1 mph - N/A   Overcast
2:15 AM 33.8 °F 26.4 °F 32.0 °F 93% 29.67 in 4.0 mi West 9.2 mph - N/A   Overcast
2:55 AM 32.0 °F 26.4 °F 32.0 °F 100% 29.66 in 3.0 mi WNW 5.8 mph - N/A Snow Light Snow
3:15 AM 32.0 °F 26.4 °F 32.0 °F 100% 29.67 in 4.0 mi WNW 5.8 mph - N/A   Overcast
3:35 AM 32.0 °F 27.5 °F 32.0 °F 100% 29.67 in 3.0 mi NNW 4.6 mph - N/A Snow Light Snow
3:55 AM 32.0 °F 26.4 °F 32.0 °F 100% 29.67 in 3.0 mi NW 5.8 mph - N/A Snow Light Snow
4:15 AM 32.0 °F 26.4 °F 32.0 °F 100% 29.67 in 5.0 mi NNW 5.8 mph - N/A   Overcast
4:35 AM 32.0 °F 26.4 °F 32.0 °F 100% 29.68 in 7.0 mi NNW 5.8 mph - N/A   Overcast
4:55 AM 32.0 °F 26.4 °F 32.0 °F 100% 29.69 in 10.0 mi NW 5.8 mph - N/A   Overcast
5:15 AM 32.0 °F 25.6 °F 32.0 °F 100% 29.69 in 10.0 mi NW 6.9 mph - N/A   Overcast
5:35 AM 32.0 °F 24.8 °F 30.2 °F 93% 29.70 in 10.0 mi NW 8.1 mph - N/A   Overcast
5:55 AM 32.0 °F 26.4 °F 30.2 °F 93% 29.72 in 7.0 mi WNW 5.8 mph - N/A   Overcast
8:45 AM 30.2 °F 20.8 °F 26.6 °F 86% 29.77 in 10.0 mi NW 11.5 mph - N/A   Mostly Cloudy
9:45 AM 28.4 °F 18.0 °F 24.8 °F 86% 29.79 in 10.0 mi NNW 12.7 mph 19.6 mph N/A   Scattered Clouds
10:45 AM 30.2 °F 19.8 °F 24.8 °F 80% 29.79 in 10.0 mi NNW 13.8 mph - N/A   Scattered Clouds
11:45 AM 32.0 °F 23.0 °F - N/A% 29.79 in 10.0 mi NNW 11.5 mph - N/A   Scattered Clouds
12:45 PM 30.2 °F 21.9 °F 23.0 °F 75% 29.80 in 10.0 mi NNW 9.2 mph - N/A   Mostly Cloudy
1:45 PM 30.2 °F 21.3 °F 23.0 °F 75% 29.80 in 10.0 mi NW 10.4 mph - N/A   Mostly Cloudy
2:45 PM 30.2 °F 20.2 °F 23.0 °F 75% 29.81 in 10.0 mi NW 12.7 mph - N/A   Mostly Cloudy
3:45 PM 30.2 °F 21.3 °F 21.2 °F 69% 29.83 in 10.0 mi NW 10.4 mph - N/A   Overcast
4:45 PM 28.4 °F 21.2 °F 21.2 °F 74% 29.66 in 10.0 mi NW 6.9 mph - N/A   Overcast
5:45 PM 28.4 °F 21.2 °F 21.2 °F 74% 29.88 in 10.0 mi NNW 6.9 mph - N/A   Overcast
6:45 PM 28.4 °F 23.3 °F 21.2 °F 74% 29.89 in 10.0 mi NNW 4.6 mph - N/A   Overcast
7:45 PM 30.2 °F - 21.2 °F 69% 29.91 in 10.0 mi Calm Calm - N/A   Overcast
8:15 PM 30.2 °F 26.7 °F 23.0 °F 75% 29.91 in 10.0 mi West 3.5 mph - N/A   Overcast
8:35 PM 30.2 °F - 23.0 °F 75% 29.91 in 10.0 mi Calm Calm - N/A   Overcast
8:45 PM 28.4 °F 24.6 °F 21.2 °F 74% 29.91 in 10.0 mi West 3.5 mph - N/A   Overcast
8:55 PM 30.2 °F 23.4 °F 23.0 °F 75% 29.91 in 10.0 mi WNW 6.9 mph - N/A   Overcast
9:15 PM 30.2 °F 25.4 °F 23.0 °F 75% 29.91 in 10.0 mi NW 4.6 mph - N/A   Overcast
9:35 PM 30.2 °F 26.7 °F 23.0 °F 75% 29.92 in 10.0 mi WNW 3.5 mph - N/A   Overcast
9:55 PM 30.2 °F 25.4 °F 23.0 °F 75% 29.92 in 10.0 mi WNW 4.6 mph - N/A   Overcast
10:15 PM 30.2 °F - 23.0 °F 75% 29.92 in 10.0 mi Calm Calm - N/A   Overcast
10:35 PM 30.2 °F 25.4 °F 24.8 °F 80% 29.92 in 10.0 mi West 4.6 mph - N/A   Overcast
10:55 PM 30.2 °F 25.4 °F 24.8 °F 80% 29.93 in 10.0 mi West 4.6 mph - N/A   Overcast
11:15 PM 30.2 °F 25.4 °F 24.8 °F 80% 29.93 in 10.0 mi West 4.6 mph - N/A   Overcast
11:35 PM 30.2 °F 26.7 °F 24.8 °F 80% 29.93 in 10.0 mi West 3.5 mph - N/A   Overcast
11:55 PM 30.2 °F - 24.8 °F 80% 29.92 in 10.0 mi Calm Calm - N/A   Overcast